Showing default

CELTEE 1, 41850

Orbit data source: Space-Track

CELTEE 1, 41850 is a payload satellite owned by AFRL/RV (US) in SSO that was launched on Fri, 11 Nov 2016 UTC via an ATLAS V 401 launch vehicle from the Air Force Western Test Range (AFWTR). Payload-class satellites include a variety of spacecraft equipped with specific instruments for various scientific and technological missions. These include communications satellites like Starlink; space stations such as the ISS; scientific satellites like the Hubble; Earth observation satellites from companies like Planet Labs, Umbra, and HawkEye 360; GPS; miniature CubeSats for education and research; and military/defense satellites.

Loading next visibility...
Identifier
41850, 2016-067C
Orbit
SSO
Country
Flag of USUS
Related business
Manufacturer
M42 Tech
Mission
Operational Defense Technology
Bus & Motor
CUBESAT 1U, Unknown motor
Mass
1 kg wet, 1 kg dry
Launch date (UTC)
2016-11-11 (9 years ago)
Launch vehicle
ATLAS V 401
Launch site
Air Force Western Test Range (AFWTR)
Object type
Payload
Rocket body
Debris
Shape & HBR
Box, 0.1 m
Radar Cross Section
0.015 m², Small (<0.1 m²)

Expand to show TLE details & history
Last TLE update: 15 hours ago

TLE from 15 hours ago
0 CELTEE 1
1 41850U 16067C   25294.54945581  .00008466  00000-0  44094-3 0  9999
2 41850  98.0933 139.9277 0001481  43.7971 316.3377 15.16285007489674
Epoch: 2025-10-21T13:11Z
TLE epoch observation values (Epoch: 2025-10-21T13:11:12.981Z)
Latitude
-0.00009°
Longitude
-88.11219°
Altitude
519.406 km
Speed
7.604 km/s
True Right ascension
09h 19m 42s
True Declination
0° 00' 00"
Sunlit
Object was in daylight at epoch
Visualization orbit readout
Latitude
Unknown
Longitude
Unknown
Altitude
Unknown
Speed
Unknown
Apparent Right ascension
Unknown
Apparent Declination
Unknown
Sunlit
N/A
Visualization observer readout
Local Sidereal Time
22:53:19
Azimuth
Unknown
Elevation
Unknown
Doppler factor
Unknown
Orbital elements
Apogee altitude
515.102 km
Perigee altitude
513.061 km
Semi-major axis
6,892.219 km
Eccentricity
0.00015
Inclination
98.0933°
RAAN
139.9277°
Arg. of periapsis
43.7971°
True anomaly
316.32598°
Mean anomaly
316.3377°
Eccentric anomaly
316.33184°
Mean motion
3.79319 °/min
Orbital period
94.91 mins
BSTAR
0.00044094
Loading maneuver chart data...
Computing Atmospheric mass density...
Loading historical data...
Loading historical data...
Loading historical data...
Loading historical data...
Loading historical data...
Loading historical data...
Loading historical data...

Documentation

Showing up to 5 results
|